www.pogodaiklimat.ru

Погода и климат >> Архив погоды >> Россия >> Якутия >> Анабар


ПОГОДА в Анабаре

  • Прогноз погоды в Анабаре
  • Монитор погоды в Анабаре

АРХИВ ПОГОДЫ в Анабаре

Время (UTC), дата Ветер
(напр.,м/с)
 
Видим.   Явления Облачность Т
(С)
Тd
(С)
f
(%)
Тe
(С)
Тes
(С)
Комфортность P
(гПа)
Po
(гПа)
Тmin
(С)
Tmax
(С)
R
(мм)
R24
(мм)
S
(см)
12 15.01 Ю 9-10
{11}
4000 м метель ясно -43.0 -44.4 86 -63 -63 опасность
обморожения
1023.6 1021.6 -43.0
15 15.01 Ю 8
{11}
20 км позёмок ясно -42.5 -43.8 87 -62 -62 опасность
обморожения
1021.9 1019.9
18 15.01 Ю 8
{10}
20 км позёмок ясно -42.0 -43.8 82 -61 -61 опасность
обморожения
1019.3 1017.3
21 15.01 Ю 9-10
{11}
4000 м метель ясно -40.9 -42.6 83 -60 -60 опасность
обморожения
1016.1 1014.1
00 16.01 Ю 8
{10}
20 км позёмок 10/0
[Ci fib]
-38.4 -40.2 83 -56 -56 опасность
обморожения
1014.0 1012.1 -43.0 10
03 16.01 Ю 10-11
{12}
4000 м метель ясно -37.2 -38.9 84 -56 -56 опасность
обморожения
1010.0 1008.1
06 16.01 Ю 10-11
{12}
4000 м метель 10/0
[Ci fib]
-36.1 -37.8 84 -55 -55 опасность
обморожения
1008.7 1006.8
09 16.01 В 9-10
{11}
4000 м метель 10/0
[Ci fib]
-35.6 -36.6 90 -54 -54 опасность
обморожения
1007.2 1005.3
12 16.01 В 8
{10}
20 км позёмок 10/0
[Ci fib]
-31.7 -32.9 89 -48 -48 опасность
обморожения
1006.2 1004.3 -31.7
15 16.01 В 8
{10}
20 км позёмок 10/0
[Ci fib]
-31.1 -32.2 90 -47 -47 опасность
обморожения
1005.4 1003.5
18 16.01 В 7 20 км позёмок 10/0
[Ci fib]
-31.2 -32.4 89 -46 -46 опасность
обморожения
1004.9 1003.0
21 16.01 ЮВ 5 20 км {метель} 8/0
[Ci fib]
-29.7 -30.9 89 -42 -42 опасность
обморожения
1004.7 1002.8
00 17.01 ЮВ 2 20 км {метель} 4/0
[Ci fib]
-30.5 -31.8 88 -38 -38 опасность
обморожения
1005.4 1003.5 -32.8 10
03 17.01 Ю 3 20 км 10/0
[Ac trans Ci fib]
-30.2 -31.3 90 -40 -40 опасность
обморожения
1005.8 1003.9
06 17.01 Ю 2 20 км 10/0
[Ac trans Ci fib]
-30.0 -31.1 90 -37 -37 опасность
обморожения
1007.0 1005.1
09 17.01 Ю 2 20 км 10/0
[Ci fib]
-32.2 -33.4 89 -40 -40 опасность
обморожения
1008.6 1006.7
12 17.01 ЮЗ 3 20 км 3/0
[Ci fib]
-34.7 -35.9 89 -45 -45 опасность
обморожения
1011.0 1009.1 -30.0
15 17.01 Ю 1 20 км ясно -34.6 -35.6 91 -39 -39 опасность
обморожения
1012.5 1010.6
18 17.01 ЮЗ 2 20 км ясно -35.4 -36.6 89 -44 -44 опасность
обморожения
1013.9 1012.0
21 17.01 ЮЗ 2 20 км ясно -35.4 -36.6 89 -44 -44 опасность
обморожения
1013.9 1012.0
00 18.01 Ю 2 20 км ясно -40.1 -41.0 91 -49 -49 опасность
обморожения
1016.6 1014.6 -40.1 10
03 18.01 ЮЗ 3 20 км 3/0
[Ci fib]
-40.9 -42.1 88 -53 -53 опасность
обморожения
1017.5 1015.5 -40.9
06 18.01 Ю 3 20 км 3/0
[Ci fib]
-41.0 -42.1 89 -53 -53 опасность
обморожения
1017.0 1015.0
09 18.01 Ю 3 20 км 4/0
[Ci fib]
-40.1 -41.0 91 -52 -52 опасность
обморожения
1016.9 1014.9
12 18.01 ЮВ 5 20 км 3/0
[Ci fib]
-40.7 -41.5 92 -56 -56 опасность
обморожения
1016.5 1014.5 -40.1
15 18.01 Ю 6 20 км позёмок 4/0
[Ci fib]
-41.1 -42.1 90 -58 -58 опасность
обморожения
1014.3 1012.3
18 18.01 Ю 8
{10}
20 км позёмок 6/0
[Ci fib]
-39.9 -41.0 89 -58 -58 опасность
обморожения
1011.7 1009.7
21 18.01 ЮВ 10-11
{12}
4000 м метель 6/0
[Ci fib]
-39.1 -40.1 90 -59 -59 опасность
обморожения
1009.6 1007.6
00 19.01 ЮВ 9-10
{11}
4000 м метель 10/0
[Ci fib]
-38.0 -39.2 88 -57 -57 опасность
обморожения
1008.3 1006.4 -41.2 10
03 19.01 Ю 9-10
{12}
4000 м метель 10/0
[Ac trans Ci fib]
-36.9 -38.0 89 -55 -55 опасность
обморожения
1007.4 1005.5
06 19.01 Ю 9-10
{11}
4000 м метель 10/0
[Ci fib]
-37.3 -38.4 89 -56 -56 опасность
обморожения
1006.9 1005.0
09 19.01 Ю 8
{11}
20 км позёмок 10/0
[Ci fib]
-37.1 -38.4 88 -55 -55 опасность
обморожения
1006.5 1004.6
12 19.01 Ю 8
{10}
20 км позёмок 10/0
[Ci fib]
-36.6 -37.2 94 -54 -54 опасность
обморожения
1006.4 1004.5 -36.6
15 19.01 Ю 8
{10}
20 км позёмок 10/0
[Ci fib]
-34.0 -34.5 95 -51 -51 опасность
обморожения
1005.7 1003.8
18 19.01 ЮВ 9-10
{11}
4000 м метель 10/0
[Ci fib]
-34.9 -35.9 91 -53 -53 опасность
обморожения
1004.7 1002.8
21 19.01 ЮВ 8
{10}
20 км позёмок 10/0
[Ci fib]
-35.7 -36.9 89 -53 -53 опасность
обморожения
1004.4 1002.5
00 20.01 В 8
{10}
20 км позёмок 10/0
[Ci fib]
-35.9 -36.9 90 -53 -53 опасность
обморожения
1004.2 1002.3 -35.9 10
03 20.01 В 8
{10}
20 км позёмок 4/0
[Ci fib]
-39.0 -40.1 89 -57 -57 опасность
обморожения
1003.6 1001.7 -39.0
06 20.01 В 7
{10}
20 км позёмок 3/0
[Ci fib]
-39.6 -40.5 91 -57 -57 опасность
обморожения
1003.4 1001.5
09 20.01 В 6 20 км позёмок 3/0
[Ci fib]
-39.6 -40.5 91 -56 -56 опасность
обморожения
1003.3 1001.4
12 20.01 В 7 20 км позёмок 3/0
[Ci fib]
-39.3 -40.5 88 -57 -57 опасность
обморожения
1003.4 1001.5 -35.9
15 20.01 В 6 20 км позёмок 3/0
[Ci fib]
-39.1 -40.1 90 -55 -55 опасность
обморожения
1003.4 1001.5
18 20.01 В 5 20 км {метель} 3/0
[Ci fib]
-39.5 -40.5 90 -54 -54 опасность
обморожения
1004.0 1002.1
21 20.01 В 4 20 км 3/0
[Ci fib]
-39.1 -40.1 90 -52 -52 опасность
обморожения
1005.3 1003.4
00 21.01 В 2 20 км 3/0
[Ci fib]
-39.8 -41.0 88 -49 -49 опасность
обморожения
1004.6 1002.7 -39.8 10
03 21.01 В 2 20 км 3/0
[Ci fib]
-38.6 -39.6 90 -48 -48 опасность
обморожения
1008.6 1006.7
06 21.01 З 2 20 км 3/0
[Ci fib]
-40.1 -41.0 91 -49 -49 опасность
обморожения
1011.0 1009.0
09 21.01 З 3 20 км ясно -41.5 -42.7 88 -53 -53 опасность
обморожения
1013.5 1011.5
12 21.01 З 3 20 км ясно -40.5 -41.5 90 -52 -52 опасность
обморожения
1015.9 1013.9 -38.6
15 21.01 З 4 20 км ясно -41.4 -42.7 87 -55 -55 опасность
обморожения
1017.3 1015.3
18 21.01 З 4 20 км ясно -40.6 -41.5 91 -54 -54 опасность
обморожения
1019.9 1017.9
21 21.01 З 3 20 км ясно -40.6 -41.5 91 -52 -52 опасность
обморожения
1021.4 1019.4
00 22.01 З 3 20 км ясно -41.3 -42.1 92 -53 -53 опасность
обморожения
1023.8 1021.8 -41.4 10
03 22.01 З 4 20 км 1/0
[Ci fib]
-41.5 -42.7 88 -55 -55 опасность
обморожения
1024.6 1022.6 -41.5
06 22.01 З 3 20 км 1/0
[Ci fib]
-41.7 -42.7 90 -54 -54 опасность
обморожения
1025.6 1023.6

 

Местоположение метеостанции Анабар (Якутия, Россия): широта 73.22 долгота 113.50 высота над уровнем моря 13 м.

В архиве по умолчанию представлена погода в Анабаре за последнюю неделю. Архивные данные за месяц целиком и за предыдущие месяцы, начиная с января 2011 года, Вы можете получить, выбрав интересующий диапазон дат из раскрывающегося списка и нажав кнопку "Ввод!".


*Определитесь, кто Вы:
робот инопланетянин человек

Внимание! Время в таблицах - всемирное. Для получения местного времени необходимо прибавить поправку, которая равна 9 ч.

Смотрите также архив погоды в соседних городах и на ближайших метеорологических станциях:

Погода в Саскылахе (Якутия, Россия) (140 км)
Погода на Острове Преображения (Якутия, Россия) (162 км)
Погода на Усть-Оленеке (Якутия, Россия) (205 км)
Погода в Джалинде (Якутия, Россия) (344 км)
Погода в Тюмяти (Якутия, Россия) (363 км)
Погода в Хатанге (Красноярский край, Россия) (391 км)
Погода на Столб Острове (Якутия, Россия) (430 км)
Погода в Оленеке (Якутия, Россия) (526 км)
Погода на Мысе Быков (Якутия, Россия) (534 км)
Погода в Сухане (Якутия, Россия) (540 км)

Пояснения к столбцам:

Ветер - указаны скорость ветра в м/с - средняя за 10 мин, порывы в срок и между сроками (в фигурных скобках) и направление, откуда дует ветер: С - северный, СВ - северо-восточный, В - восточный, ЮВ - юго-восточный, Ю - южный, ЮЗ - юго-западный, З - западный, СЗ - северо-западный.
Видимость - горизонтальная дальность видимости в метрах или километрах. При видимости от 1 до 10 км при отсутствии осадков обычно наблюдается дымка, при ухудшении видимости до 1 км и менее - туман. В сухую погоду видимость может ухудшаться дымом, пылью или мглою.
Явления - указаны атмосферные явления, наблюдавшиеся в срок или в последний час перед сроком; фигурными скобками обозначены явления, наблюдавшиеся между сроками (за 1-3 часа до срока); квадратными скобками обозначены град или гололедные отложения с указанием их диаметра в мм.
Облачность - указаны через наклонную черту общая и нижняя облачность в баллах и высота нижней границы облаков в метрах; квадратными скобками обозначены формы облаков: Ci - перистые, Cs - перисто-слоистые, Cc - перисто-кучевые, Ac - высококучевые, As - высокослоистые, Sc - слоисто-кучевые, Ns - слоисто-дождевые, Cu - кучевые, Cb - кучево-дождевые. Подробнее классификацию облаков см. в Атласе облаков (PDF).
T - Температура воздуха - температура, измеренная на высоте 2 м над землей.
Td - Температура точки росы - температура, при понижении до которой содержащийся в воздухе водяной пар достигнет насыщения.
f - Относительная влажность воздуха - влажноcть воздуха, измеренная на высоте 2 м над землей.
Te - Эффективная температура - температура, которую ощущает одетый по сезону человек в тени. Характеристика душности погоды. При расчете учитывается влияние влажности воздуха и скорости ветра на теплоощущения человека.
Tes - Эффективная температура на солнце - температура, которую ощущает человек, с поправкой на солнечный нагрев. Характеристика знойности погоды. Зависит от высоты солнца над горизонтом, облачности и скорости ветра. Ночью, в пасмурную погоду, а также при ветре 12 м/с и более поправка равна нулю.
P - Атмосферное давление - приведенное к уровню моря атмосферное давление.
Po - Атмосферное давление - измеренное на уровне метеостанции атмосферное давление.
Tmin - Минимальная температура - минимум температуры воздуха на высоте 2 м над землей.
Tmax - Максимальная температура - максимум температуры воздуха на высоте 2 м над землей.
R - Количество осадков - Количество выпавших осадков за период времени, мм. При наведении курсора мыши на число - период времени, за который выпало указанное количество осадков.
R24 - Количество осадков - Количество выпавших осадков за 24 часа, мм.
S - Снежный покров - Высота снежного покрова, см. При наведении курсора мыши на число - состояние снежного покрова и степень покрытия местности в баллах.